| time (UTC) | temp F | wind direction | speed MPH | gust MPH | rain 1hr in | rain 24hr in | rain mn in | humidity % | barometer mb |
| 20260901093602 | 72 | 0.0 | 0.0 | 0.00 | 0.00 | 0.00 | 54 | 1023.4 | |
| 20260901092602 | 71 | 0.0 | 0.0 | 0.00 | 0.00 | 0.00 | 59 | 1023.5 | |
| 20260901092102 | 72 | 0.0 | 0.0 | 0.00 | 0.00 | 0.00 | 58 | 1023.6 | |
| 20260901091602 | 72 | 0.0 | 0.0 | 0.00 | 0.00 | 0.00 | 58 | 1023.6 | |
| 20260901090602 | 71 | 0.0 | 0.0 | 0.00 | 0.00 | 0.00 | 58 | 1023.6 | |
| 20260901085102 | 70 | 0.0 | 0.0 | 0.00 | 0.00 | 0.00 | 60 | 1023.7 | |
| 20260901083602 | 69 | 0.0 | 0.0 | 0.00 | 0.00 | 0.00 | 60 | 1023.7 | |
| 20260901082602 | 69 | 0.0 | 0.0 | 0.00 | 0.00 | 0.00 | 60 | 1023.7 | |
| 20260901074601 | 68 | 0.0 | 0.0 | 0.00 | 0.00 | 0.00 | 60 | 1023.8 | |
| 20260901064102 | 66 | 0.0 | 0.0 | 0.00 | 0.00 | 0.00 | 65 | 1024.0 | |
| 20260901060601 | 65 | 0.0 | 0.0 | 0.00 | 0.00 | 0.00 | 66 | 1024.0 | |
| 20260901055602 | 65 | 0.0 | 0.0 | 0.00 | 0.00 | 0.00 | 66 | 1023.9 | |
| 20260901045102 | 67 | 0.0 | 0.0 | 0.00 | 0.00 | 0.00 | 64 | 1024.0 | |
| 20260901043602 | 67 | 0.0 | 0.0 | 0.00 | 0.00 | 0.00 | 64 | 1023.9 | |
| 20260901041102 | 67 | 0.0 | 0.0 | 0.00 | 0.00 | 0.00 | 64 | 1024.0 | |
| 20260901040602 | 67 | 0.0 | 0.0 | 0.00 | 0.00 | 0.00 | 64 | 1024.1 | |
| 20260901035603 | 67 | 0.0 | 0.0 | 0.00 | 0.00 | 0.00 | 65 | 1024.0 | |
| 20260901034602 | 67 | 0.0 | 0.0 | 0.00 | 0.00 | 0.00 | 64 | 1024.1 | |
| 20260901034102 | 67 | 0.0 | 0.0 | 0.00 | 0.00 | 0.00 | 64 | 1024.1 | |
| 20260901030603 | 67 | 0.0 | 0.0 | 0.00 | 0.00 | 0.00 | 64 | 1024.0 | |
| 20260901023603 | 67 | 0.0 | 0.0 | 0.00 | 0.00 | 0.00 | 65 | 1024.1 | |
| 20260901020602 | 67 | 0.0 | 0.0 | 0.00 | 0.00 | 0.00 | 63 | 1024.4 | |
| 20260901013602 | 68 | 0.0 | 0.0 | 0.00 | 0.00 | 0.00 | 62 | 1024.2 | |
| 20260901001602 | 69 | 0.0 | 0.0 | 0.00 | 0.00 | 0.00 | 60 | 1024.4 | |
| 20260831234102 | 70 | 0.0 | 0.0 | 0.00 | 0.00 | 0.00 | 60 | 1024.5 | |
| 20260831232602 | 70 | 0.0 | 0.0 | 0.00 | 0.00 | 0.00 | 60 | 1024.4 | |
| 20260831231602 | 70 | 0.0 | 0.0 | 0.00 | 0.00 | 0.00 | 61 | 1024.4 | |
| 20260831231102 | 71 | 0.0 | 0.0 | 0.00 | 0.00 | 0.00 | 59 | 1024.4 | |
| 20260831225102 | 70 | 0.0 | 0.0 | 0.00 | 0.00 | 0.00 | 59 | 1024.4 | |
| 20260831224602 | 71 | 0.0 | 0.0 | 0.00 | 0.00 | 0.00 | 59 | 1024.3 | |
| 20260831223602 | 71 | 0.0 | 0.0 | 0.00 | 0.00 | 0.00 | 58 | 1024.1 | |
| 20260831222102 | 72 | 0.0 | 0.0 | 0.00 | 0.00 | 0.00 | 56 | 1024.1 | |
| 20260831210602 | 73 | 0.0 | 0.0 | 0.00 | 0.00 | 0.00 | 51 | 1023.3 | |
| 20260831204605 | 74 | 0.0 | 0.0 | 0.00 | 0.00 | 0.00 | 49 | 1023.2 | |
| 20260831202602 | 75 | 0.0 | 0.0 | 0.00 | 0.00 | 0.00 | 47 | 1022.8 | |
| 20260831200607 | 76 | 0.0 | 0.0 | 0.00 | 0.00 | 0.00 | 46 | 1022.5 | |
| 20260831195602 | 76 | 0.0 | 0.0 | 0.00 | 0.00 | 0.00 | 45 | 1022.3 | |
| 20260831194102 | 76 | 0.0 | 0.0 | 0.00 | 0.00 | 0.00 | 44 | 1022.1 | |
| 20260831192602 | 76 | 0.0 | 0.0 | 0.00 | 0.00 | 0.00 | 44 | 1021.9 | |
| 20260831192102 | 76 | 0.0 | 0.0 | 0.00 | 0.00 | 0.00 | 43 | 1021.8 | |
| 20260831185602 | 77 | 0.0 | 0.0 | 0.00 | 0.00 | 0.00 | 42 | 1021.5 | |
| 20260831184603 | 77 | 0.0 | 0.0 | 0.00 | 0.00 | 0.00 | 42 | 1021.3 | |
| 20260831183602 | 77 | 0.0 | 0.0 | 0.00 | 0.00 | 0.00 | 42 | 1021.2 | |
| 20260831182102 | 78 | 0.0 | 0.0 | 0.00 | 0.00 | 0.00 | 41 | 1021.0 | |
| 20260831181602 | 78 | 0.0 | 0.0 | 0.00 | 0.00 | 0.00 | 41 | 1021.0 | |
| 20260831180602 | 79 | 0.0 | 0.0 | 0.00 | 0.00 | 0.00 | 40 | 1020.8 | |
| 20260831175102 | 79 | 0.0 | 0.0 | 0.00 | 0.00 | 0.00 | 40 | 1020.7 | |
| 20260831174603 | 79 | 0.0 | 0.0 | 0.00 | 0.00 | 0.00 | 40 | 1020.6 | |
| 20260831170602 | 83 | 0.0 | 0.0 | 0.00 | 0.00 | 0.00 | 35 | 1020.3 | |
| 20260831165102 | 83 | 0.0 | 0.0 | 0.00 | 0.00 | 0.00 | 34 | 1020.2 | |
| 20260831163102 | 84 | 0.0 | 0.0 | 0.00 | 0.00 | 0.00 | 30 | 1020.2 | |
| 20260831162602 | 84 | 0.0 | 0.0 | 0.00 | 0.00 | 0.00 | 31 | 1020.2 | |
| 20260831162102 | 84 | 0.0 | 0.0 | 0.00 | 0.00 | 0.00 | 31 | 1020.2 | |
| 20260831161102 | 84 | 0.0 | 0.0 | 0.00 | 0.00 | 0.00 | 30 | 1020.3 | |
| 20260831152602 | 83 | 0.0 | 0.0 | 0.00 | 0.00 | 0.00 | 31 | 1020.5 | |
| 20260831151602 | 83 | 0.0 | 0.0 | 0.00 | 0.00 | 0.00 | 31 | 1020.4 | |
| 20260831145102 | 82 | 0.0 | 0.0 | 0.00 | 0.00 | 0.00 | 31 | 1020.4 | |
| 20260831143102 | 82 | 0.0 | 0.0 | 0.00 | 0.00 | 0.00 | 32 | 1020.6 | |
| 20260831135602 | 81 | 0.0 | 0.0 | 0.00 | 0.00 | 0.00 | 34 | 1020.8 | |
| 20260831134602 | 81 | 0.0 | 0.0 | 0.00 | 0.00 | 0.00 | 35 | 1020.8 | |
| 20260831132602 | 80 | 0.0 | 0.0 | 0.00 | 0.00 | 0.00 | 36 | 1021.0 | |
| 20260831131602 | 80 | 0.0 | 0.0 | 0.00 | 0.00 | 0.00 | 36 | 1021.1 | |
| 20260831124602 | 80 | 0.0 | 0.0 | 0.00 | 0.00 | 0.00 | 36 | 1021.1 | |
| 20260831123602 | 79 | 0.0 | 0.0 | 0.00 | 0.00 | 0.00 | 36 | 1021.2 | |
| 20260831122602 | 79 | 0.0 | 0.0 | 0.00 | 0.00 | 0.00 | 37 | 1021.3 | |
| 20260831120602 | 78 | 0.0 | 0.0 | 0.00 | 0.00 | 0.00 | 37 | 1021.4 | |
| 20260831115602 | 78 | 0.0 | 0.0 | 0.00 | 0.00 | 0.00 | 37 | 1021.5 | |
| 20260831113102 | 77 | 0.0 | 0.0 | 0.00 | 0.00 | 0.00 | 38 | 1021.6 | |
| 20260831103102 | 75 | 0.0 | 0.0 | 0.00 | 0.00 | 0.00 | 38 | 1021.8 | |
| 20260831102602 | 75 | 0.0 | 0.0 | 0.00 | 0.00 | 0.00 | 38 | 1021.8 |